DateTimeUTC,F1_A11,F1_S11,BsB_S11,BsG_S11,BsR_S11,BbsB_S11,BbsG_S11,BbsR_S11,BaB_A11,BaG_A11,BaR_A11,Tu_S11,T_S11,Uu_S11,U_S11,P_S11,T1_A11
2021-08-22T02:00:00Z,00000200,20000000,,,,,,,-000.03,-000.02,-000.12,18.8,25.5,10.5,07.0,0678.2,30.9
2021-08-22T02:01:00Z,00000200,20000000,,,,,,,0000.03,-000.30,-000.22,18.7,25.5,10.5,07.0,0678.2,30.9
2021-08-22T02:02:00Z,00000200,20000000,,,,,,,0000.28,0000.09,0000.35,18.7,25.5,10.3,06.8,0678.2,30.9
2021-08-22T02:03:00Z,00000200,60000000,,,,,,,0000.03,0000.93,0000.21,18.7,25.5,10.3,06.8,0678.2,30.9
2021-08-22T02:04:00Z,00000200,40000000,0001.98,0001.91,0001.46,0000.01,0000.45,0000.84,0000.18,-000.09,0000.24,18.9,25.3,10.3,07.0,0679.1,30.9
2021-08-22T02:05:00Z,00000200,00000000,0002.06,0001.84,0001.42,0000.25,0000.38,0000.25,0000.79,0000.42,0000.25,18.9,25.3,10.3,07.0,0679.2,30.9
2021-08-22T02:06:00Z,00000200,00000000,0001.41,0001.88,0000.76,-000.04,0000.36,0000.29,0000.42,0000.46,0000.65,18.9,25.3,10.4,07.0,0679.1,30.9
2021-08-22T02:07:00Z,00000200,00000000,0001.24,0002.12,0001.66,0000.37,0000.38,0000.18,0000.40,0000.32,-000.01,18.9,25.3,10.3,07.0,0679.2,30.9
2021-08-22T02:08:00Z,00000200,00000000,0002.50,0002.19,0001.36,0000.59,0000.49,0000.43,0000.62,0000.73,0000.46,18.9,25.3,10.3,07.0,0679.2,30.9
2021-08-22T02:09:00Z,00000200,00000000,0002.62,0001.96,0001.50,0000.47,0000.20,0000.18,0000.32,0000.14,0000.42,18.9,25.2,10.2,07.0,0679.2,30.9
2021-08-22T02:10:00Z,00000200,00000000,0001.75,0001.62,0001.20,0000.20,0000.03,0000.10,0000.81,0000.80,0000.59,18.9,25.2,10.3,07.0,0679.2,30.9
2021-08-22T02:11:00Z,00000200,00000000,0002.08,0001.71,0001.44,0000.88,0000.02,0000.26,0000.37,0000.63,0000.15,18.9,25.2,10.3,07.0,0679.1,30.9
2021-08-22T02:12:00Z,00000200,00000000,0002.32,0001.98,0001.50,0000.10,0000.18,0000.29,0000.64,-000.00,0000.43,18.9,25.2,10.2,06.9,0679.2,30.9
2021-08-22T02:13:00Z,00000200,00000000,0002.35,0002.14,0001.59,-000.28,0000.11,0000.43,0000.60,0000.88,0000.60,18.9,25.2,10.3,07.0,0679.2,30.9
2021-08-22T02:14:00Z,00000200,00000000,0002.61,0001.69,0001.38,0000.45,0000.12,0000.20,0000.43,0000.21,0000.23,18.9,25.2,10.3,07.0,0679.1,30.9
2021-08-22T02:15:00Z,00000200,00000000,0001.76,0001.71,0001.48,0000.62,0000.37,0000.47,0000.75,0001.01,0000.44,18.9,25.2,10.3,07.0,0679.1,30.9
2021-08-22T02:16:00Z,00000200,00000000,0002.50,0001.92,0001.30,0000.93,0000.12,0000.11,0000.13,0000.20,0000.56,18.9,25.2,10.3,07.0,0679.1,30.9
2021-08-22T02:17:00Z,00000200,00000000,0002.21,0001.92,0001.32,0000.59,0000.41,0000.10,0000.73,0000.70,0000.20,18.9,25.2,10.3,07.0,0679.1,30.9
2021-08-22T02:18:00Z,00000200,00000000,0001.57,0001.75,0001.34,0000.55,0000.31,0000.08,0000.54,0000.37,0000.24,18.9,25.2,10.2,07.0,0679.1,30.9
2021-08-22T02:19:00Z,00000200,00000000,0002.42,0002.09,0001.39,0000.95,0000.24,0000.22,0000.52,0000.19,0000.59,18.9,25.2,10.2,06.9,0679.0,30.9
2021-08-22T02:20:00Z,00000200,00000000,0002.04,0001.82,0001.40,0000.13,0000.43,0000.40,0000.46,0000.51,0000.56,18.9,25.2,10.2,07.0,0679.1,30.9
2021-08-22T02:21:00Z,00000200,00000000,0001.59,0002.07,0001.40,0000.24,0000.37,0000.36,0000.83,0000.65,0000.39,18.9,25.2,10.2,07.0,0679.1,30.9
2021-08-22T02:22:00Z,00000200,00000000,0002.12,0002.14,0001.70,0000.42,0000.22,0000.68,0000.14,0000.48,0000.24,18.9,25.2,10.2,07.0,0679.1,30.9
2021-08-22T02:23:00Z,00000200,00000000,0001.93,0001.80,0001.69,0000.50,0000.35,0000.22,0000.75,0000.58,0000.61,18.9,25.2,10.3,07.0,0679.1,30.9
2021-08-22T02:24:00Z,00000200,00000000,0001.52,0002.11,0001.52,0000.47,0000.22,0000.26,0000.47,0000.56,0000.53,18.9,25.2,10.2,07.0,0679.1,30.9
2021-08-22T02:25:00Z,00000200,00000000,0002.86,0001.96,0001.30,0000.25,0000.14,0000.26,0000.71,0000.89,0000.12,18.9,25.2,10.3,07.0,0679.1,30.9
2021-08-22T02:26:00Z,00000200,00010000,0002.70,0001.97,0001.09,0000.49,0000.17,0000.27,0000.43,-000.27,0000.27,18.9,25.2,10.2,07.0,0679.1,31.0
2021-08-22T02:27:00Z,00000200,00000000,0002.57,0001.76,0001.20,0000.35,0000.15,0000.09,0000.28,0000.95,0000.30,18.9,25.2,10.2,06.9,0679.1,30.9
2021-08-22T02:28:00Z,00000200,00000000,0001.91,0001.97,0001.12,0000.36,0000.43,0000.25,0000.54,0000.08,0000.45,18.9,25.2,10.1,06.9,0679.1,30.9
2021-08-22T02:29:00Z,00000200,00000000,0002.21,0001.97,0001.56,0000.40,0000.22,0000.08,0000.55,0000.52,0000.41,18.9,25.2,10.1,06.9,0679.1,30.9
2021-08-22T02:30:00Z,00000200,00000000,0002.96,0001.99,0001.26,0000.55,0000.10,0000.19,0000.86,0000.89,0000.37,18.9,25.2,10.2,07.0,0679.1,30.9
2021-08-22T02:31:00Z,00000200,00000000,0002.46,0001.67,0001.82,0000.36,0000.29,0000.34,0000.26,0000.62,0000.59,19.0,25.2,10.1,06.9,0679.1,30.9
2021-08-22T02:32:00Z,00000200,00000000,0002.81,0001.78,0001.40,0000.55,0000.25,0000.27,0000.51,0000.18,0000.08,18.9,25.2,10.2,07.0,0679.1,31.0
2021-08-22T02:33:00Z,00000200,00000000,0002.80,0002.12,0001.30,0000.69,0000.30,0000.15,0000.66,0000.57,0000.57,18.9,25.2,10.1,06.9,0679.1,30.9
2021-08-22T02:34:00Z,00000200,00000000,0002.22,0002.02,0001.91,0000.19,0000.23,0000.41,0000.79,0000.56,0000.66,18.9,25.2,10.2,07.0,0679.1,30.9
2021-08-22T02:35:00Z,00000200,00000000,0002.45,0002.54,0001.44,0000.45,0000.25,0000.25,0000.55,0000.59,0000.51,18.9,25.2,10.1,06.9,0679.1,30.9
2021-08-22T02:36:00Z,00000200,00000000,0002.15,0001.99,0001.85,0000.82,0000.14,0000.52,0000.67,0000.52,0000.38,18.9,25.2,10.2,07.0,0679.1,30.9
2021-08-22T02:37:00Z,00000200,00000000,0002.41,0002.19,0001.10,0000.39,0000.28,0000.17,0000.35,0000.84,0000.45,18.9,25.2,10.2,07.0,0679.1,30.9
2021-08-22T02:38:00Z,00000200,00000000,0002.60,0001.88,0000.97,0000.46,0000.22,0000.10,0000.55,0000.25,0000.19,18.9,25.2,10.2,07.0,0679.1,30.9
2021-08-22T02:39:00Z,00000200,00000000,0002.50,0001.81,0001.34,0000.54,0000.48,0000.29,0000.47,0000.41,0000.53,18.9,25.2,10.2,07.0,0679.1,30.9
2021-08-22T02:40:00Z,00000200,00000000,0001.93,0001.95,0001.44,0000.16,0000.14,-000.03,0000.44,0000.77,0000.52,18.9,25.2,10.1,06.9,0679.1,30.9
2021-08-22T02:41:00Z,00000200,00000000,0002.72,0002.09,0001.60,0000.25,0000.33,0000.26,0000.92,0000.14,0000.27,18.9,25.2,10.1,06.9,0679.1,30.9
2021-08-22T02:42:00Z,00000200,00000000,0002.71,0002.18,0001.67,0000.35,-000.03,0000.75,0000.49,0000.77,0000.42,18.9,25.2,10.2,07.0,0679.1,30.9
2021-08-22T02:43:00Z,00000200,00000000,0001.73,0002.66,0001.81,0000.70,0000.41,0000.43,0000.74,0000.68,0000.66,18.9,25.2,10.1,06.9,0679.1,31.0
2021-08-22T02:44:00Z,00000200,00000000,0002.79,0002.62,0001.72,0000.75,0000.34,0000.35,0000.37,0000.18,0000.44,18.9,25.2,10.1,06.9,0679.1,30.9
2021-08-22T02:45:00Z,00000200,00000000,0002.11,0002.78,0001.81,0001.23,0000.19,0000.53,0000.52,0000.77,0000.36,18.9,25.2,10.1,06.9,0679.1,30.9
2021-08-22T02:46:00Z,00000200,00000000,0002.84,0002.72,0001.95,0000.84,0000.38,0000.28,0000.85,0000.61,0000.57,18.9,25.2,09.9,06.8,0679.1,30.9
2021-08-22T02:47:00Z,00000200,00000000,0002.89,0002.13,0002.05,0000.68,0000.43,0000.67,0000.71,0000.53,0000.35,18.9,25.1,09.9,06.8,0679.1,30.9
2021-08-22T02:48:00Z,00000200,00000000,0002.92,0002.73,0001.59,0000.69,0000.61,0000.50,0000.94,0000.93,0000.73,18.9,25.2,10.0,06.8,0679.1,30.9
2021-08-22T02:49:00Z,00000200,00000000,0002.95,0002.73,0001.53,0000.17,0000.36,0000.33,0000.33,0000.83,0000.57,18.9,25.2,10.0,06.9,0679.1,30.9
2021-08-22T02:50:00Z,00000200,00000000,0002.14,0002.58,0001.90,0000.76,0000.06,0000.46,0000.85,0000.16,0000.24,18.9,25.1,10.1,06.9,0679.1,30.9
2021-08-22T02:51:00Z,00000200,00000000,0004.25,0002.49,0001.95,0000.23,0000.11,0000.41,0000.59,0001.04,0000.79,18.9,25.2,10.1,06.9,0679.1,30.9
2021-08-22T02:52:00Z,00000200,00000000,0002.96,0002.64,0001.44,0000.24,0000.17,0000.24,0000.97,0000.83,0000.81,18.9,25.2,10.1,06.9,0679.1,30.9
2021-08-22T02:53:00Z,00000200,00000000,0003.68,0002.45,0001.80,0000.88,0000.23,0000.28,0000.69,0000.64,0000.18,18.9,25.2,10.0,06.9,0679.1,30.9
2021-08-22T02:54:00Z,00000200,00000000,0003.07,0002.26,0001.88,0000.28,0000.16,0000.11,0000.68,0000.57,0000.30,18.9,25.2,10.2,07.0,0679.1,30.9
2021-08-22T02:55:00Z,00000200,00000000,0002.84,0002.38,0001.43,0000.62,0000.47,0000.25,0000.78,0000.53,0000.74,18.9,25.2,10.1,06.9,0679.1,30.9
2021-08-22T02:56:00Z,00000200,00000000,0002.99,0002.81,0001.45,0000.28,0000.35,0000.37,0000.68,0000.78,0000.57,18.9,25.2,10.1,06.9,0679.0,30.9
2021-08-22T02:57:00Z,00000200,40000000,,,,,,,0000.32,0000.29,0000.18,19.0,25.2,09.8,06.7,0679.0,30.9
2021-08-22T02:58:00Z,00000200,60000000,,,,,,,-000.08,-000.26,0000.03,18.7,25.3,10.2,06.8,0678.1,30.9
2021-08-22T02:59:00Z,00000200,20000000,,,,,,,0000.16,-000.02,0000.00,18.7,25.4,10.2,06.8,0678.1,30.9
